Flag for Canada Weather past 2 weeks in Montreal, Quebec, Canada

Now
63 °F

Passing clouds.


Feels Like: 63 °F
Forecast: 59 / 69 °F
Wind: 6 mph from Northwest

Location: Montreal - Pierre Elliot Trudeau International Aiport

Current Time: Aug 28, 2014 at 5:47:26 AM

Latest Report: Aug 28, 2014 at 5:00 AM


Visibility: 15 mi

Pressure: 29.90 "Hg

Humidity: 73%

Dew point: 54 °F

Location of MontrealLocation

Historic Weather in Montreal — Graph

°F

Montreal temperature yesterday

Maximum temperature yesterday: 77 °F (at 12:00 PM)
Minimum temperature yesterday: 68 °F (at 6:00 AM)
Average temperature yesterday: 72 °F

Past Weeks' High & Low Weather Summary

 TemperatureHumidityPressure
High84 °F (Aug 26, 4:00 PM)100% (Aug 13, 6:00 PM)30.19 "Hg (Aug 13, 6:00 PM)
Low52 °F (Aug 19, 5:00 AM)44% (Aug 19, 4:00 PM)29.66 "Hg (Aug 14, 12:00 AM)
Average67 °F73%29.94 "Hg
* Reported Aug 13 4:00 AM — Aug 28 4:00 AM, Montreal, Weather by CustomWeather, © 2014

Note: Actual official high and low records may vary slightly from our data, if they occured in-between our weather recording intervals... More about our weather records

Advertising

Montreal weather history for previous 24 hours

 ConditionsComfort  
Time TempWeatherWind HumidityBarometerVisibility
4:00 AM
Aug 28
64 °FPassing clouds.6 mph68%29.89 "Hg15 mi
3:00 AM66 °FPartly cloudy.6 mph64%29.90 "Hg15 mi
2:00 AM64 °FPassing clouds.7 mph73%29.90 "Hg15 mi
1:00 AM66 °FPartly cloudy.5 mph68%29.91 "Hg15 mi
12:00 AM66 °FPassing clouds.6 mph68%29.92 "Hg15 mi
11:00 PM
Aug 27
68 °FPassing clouds.7 mph69%29.92 "Hg15 mi
10:00 PM68 °FPassing clouds.7 mph69%29.92 "Hg15 mi
9:00 PM70 °FPassing clouds.6 mph64%29.91 "Hg15 mi
8:00 PM72 °FPartly sunny.8 mph61%29.91 "Hg15 mi
7:00 PM72 °FSprinkles. Mostly cloudy.6 mph61%29.90 "Hg15 mi
6:00 PM73 °FSprinkles. Cloudy.10 mph57%29.91 "Hg30 mi
5:00 PM75 °FCloudy.8 mph50%29.90 "Hg30 mi
4:00 PM75 °FPartly sunny.9 mph50%29.90 "Hg30 mi
3:00 PM75 °FBroken clouds.12 mph54%29.90 "Hg30 mi
2:00 PM77 °FBroken clouds.8 mph51%29.91 "Hg30 mi
1:00 PM77 °FPartly sunny.10 mph54%29.92 "Hg15 mi
12:00 PM77 °FPartly sunny.12 mph54%29.93 "Hg15 mi
11:00 AM73 °FPartly sunny.8 mph65%29.93 "Hg15 mi
10:00 AM72 °FPartly sunny.7 mph69%29.93 "Hg15 mi
9:00 AM70 °FOvercast.9 mph73%29.92 "Hg15 mi
8:00 AM72 °FPartly sunny.9 mph78%29.92 "Hg15 mi
7:00 AM68 °FPassing clouds.7 mph94%29.90 "Hg15 mi
6:00 AM68 °FPassing clouds.9 mph88%29.90 "Hg15 mi
5:00 AM70 °FPassing clouds.9 mph83%29.88 "Hg15 mi
Weather by CustomWeather, © 2014

See weather overviewHow to use our weather pages